Probability
2 2 1 0 0 0 1 2 3 3 3 3 2 1 0 0 0 0 0 0 1 2 3 3 3 2 1 0 0 0 0 0 0 0 0 0 0 0 0 0 0 0 0
1 1 0 0 0 0 1 2 3 3 3 3 2 1 0 0 0 0 0 0 0 1 2 2 2 2 1 0 0 0 0 0 0 0 0 0 0 0 0 0 0 0 0
0 0 0 0 0 0 0 1 3 4 3 3 2 1 0 0 0 0 0 0 0 0 1 1 1 2 1 0 0 0 0 0 0 1 1 1 0 0 0 0 0 0 0
0 0 0 0 0 0 0 1 4 4 4 3 2 1 0 0 0 0 0 0 0 0 0 0 1 2 2 1 0 0 0 0 0 1 2 2 1 0 0 0 0 0 0
0 0 0 0 0 0 0 1 2 3 3 3 2 1 0 0 0 0 0 0 0 0 0 0 0 1 1 1 1 1 0 1 1 1 2 3 2 1 0 0 0 0 0
0 0 0 0 0 0 0 0 1 1 3 3 2 1 0 0 0 0 0 0 0 0 0 0 0 0 0 1 2 2 2 2 2 2 2 3 3 2 1 0 0 0 0
0 0 0 0 0 0 0 0 0 1 2 3 2 1 0 0 0 0 0 0 0 0 0 0 0 0 0 0 1 2 3 3 3 3 3 3 3 3 2 0 0 0 0
0 0 0 0 0 0 0 1 0 1 2 2 1 0 0 0 0 0 0 0 0 0 0 0 0 0 0 0 0 1 2 3 3 3 3 3 2 2 1 0 0 0 0
0 0 0 0 0 0 0 0 0 1 2 1 0 0 0 0 0 0 0 0 0 0 0 0 0 0 0 0 0 0 1 2 3 3 3 2 1 1 1 0 0 0 0
0 0 0 0 0 0 0 0 0 1 1 1 0 0 0 0 0 0 0 0 0 0 0 0 0 0 0 0 0 0 0 1 3 3 3 2 1 1 1 1 0 0 0
0 0 0 0 0 0 0 0 0 0 0 0 0 0 0 0 0 0 0 0 0 0 0 0 0 0 0 0 0 0 0 1 2 3 3 3 2 2 2 1 0 0 0
0 0 0 0 0 0 0 0 0 0 0 0 0 0 0 0 0 0 0 0 0 0 0 0 0 0 0 0 0 0 0 0 1 2 3 3 2 2 1 1 0 0 0
0 0 0 0 0 0 1 1 0 0 0 0 0 0 0 0 0 0 0 0 0 0 0 0 0 0 0 0 0 0 0 0 0 1 1 2 1 0 0 0 0 0 0
0 0 0 0 0 0 1 1 1 0 0 0 0 0 0 0 0 0 0 0 0 0 0 0 0 0 0 0 0 0 0 0 0 0 1 1 1 0 0 0 0 0 0
0 0 0 0 0 0 0 1 1 0 0 0 0 0 0 0 0 0 0 0 0 0 0 0 0 0 0 0 0 0 0 0 0 0 0 0 0 0 0 0 0 0 0
0 0 0 0 0 0 0 0 0 0 0 0 0 0 0 0 0 0 0 0 0 0 0 0 0 0 0 0 0 0 0 0 0 0 0 0 0 0 0 0 0 0 0
0 0 0 0 0 0 0 0 0 0 0 0 0 0 0 0 0 0 0 0 0 0 0 0 0 0 0 0 0 0 0 0 0 0 0 0 0 0 0 0 0 0 0
0 0 0 0 0 0 0 0 0 0 0 0 0 0 0 0 0 0 0 0 0 0 0 0 0 0 0 0 0 0 0 0 0 0 0 0 0 0 0 0 0 0 0
0 0 0 0 0 0 0 0 0 0 0 0 0 0 0 0 0 0 0 0 0 0 0 0 0 0 0 0 0 0 0 0 0 0 0 0 0 0 0 0 0 0 0
0 0 0 0 0 0 0 0 0 0 0 0 0 0 0 0 0 0 0 0 0 0 0 0 0 0 0 0 0 0 0 0 0 0 0 0 0 0 0 0 0 0 0
0 0 0 0 0 0 0 0 0 0 0 0 0 0 0 0 0 0 0 0 0 0 0 0 0 0 0 0 0 0 0 0 0 0 0 0 0 0 0 0 0 0 0
0 0 0 0 0 0 0 0 0 0 0 0 0 0 0 0 0 0 0 0 0 0 0 0 0 0 0 0 0 0 0 0 0 0 0 0 0 0 0 0 0 0 0
0 0 0 0 0 0 0 0 0 0 0 0 0 0 0 0 0 0 0 0 0 0 0 0 0 0 0 0 0 0 0 0 0 0 0 0 0 0 0 0 0 0 0
0 0 0 0 0 0 0 0 0 0 0 0 0 0 0 0 0 0 0 0 0 0 0 0 0 0 0 0 0 0 0 0 0 0 0 0 0 0 0 0 0 0 0
0 0 0 0 0 0 0 0 0 0 0 0 0 0 0 0 0 0 0 0 0 0 0 0 0 0 0 0 0 0 0 0 0 0 0 0 0 0 0 0 0 0 0
0 0 0 0 0 0 0 0 0 0 0 0 0 0 0 0 0 0 0 0 0 0 0 0 0 0 0 0 0 0 0 0 0 0 0 0 0 0 0 0 0 0 0
Wind_Speed
2 2 2 2 2 2 2 2 2 3 2 2 2 2 2 2 2 3 3 7 7 6 6 6 6 6 7 7 6 6 6 6 6 7 7 7 7 7 7 6 7 7 7
2 2 2 2 2 2 2 2 2 3 2 2 2 2 2 2 2 4 4 4 6 6 5 5 5 5 6 6 6 6 6 6 6 6 6 6 6 6 6 7 6 6 7
2 2 2 2 2 2 2 2 2 2 2 2 2 2 2 2 2 4 4 3 3 4 5 4 4 4 4 5 5 6 6 6 6 5 5 5 5 5 6 6 7 6 6
2 2 2 2 3 2 2 2 2 2 2 2 2 1 2 2 3 4 4 3 3 2 3 4 5 4 5 5 5 6 6 6 6 5 5 4 4 5 5 5 5 6 6
2 3 2 2 3 2 2 2 2 2 3 3 2 2 2 2 2 3 3 3 3 2 2 3 4 4 4 4 5 5 5 5 5 4 4 4 4 4 4 4 4 4 4
3 3 3 3 3 3 2 2 3 2 2 3 3 3 2 2 2 3 2 2 2 3 2 2 2 2 4 4 3 3 4 4 4 4 3 3 3 2 2 3 3 3 4
3 3 3 3 2 3 3 3 3 3 2 3 3 2 2 2 2 2 1 2 2 2 2 2 2 1 1 3 2 2 2 3 3 3 2 2 1 1 1 1 2 2 3
3 3 4 3 3 3 3 3 3 2 2 2 3 2 1 1 2 1 1 2 2 2 2 2 2 2 2 1 2 2 1 2 2 2 2 1 0 0 1 1 1 1 2
4 3 4 4 3 3 3 3 3 3 3 1 1 2 3 2 0 1 0 1 1 1 1 1 2 2 2 1 1 1 1 0 1 2 2 2 1 1 1 1 2 2 2
4 4 4 4 4 3 4 3 3 2 4 3 1 0 1 3 3 1 1 0 1 1 1 1 1 1 1 1 1 1 1 0 1 2 3 3 3 3 3 2 3 3 3
4 4 4 4 4 3 4 4 3 2 2 3 2 1 0 1 2 3 1 1 0 0 0 1 1 0 1 1 1 1 1 0 2 2 3 3 3 4 4 4 4 4 4
3 4 4 4 4 4 4 4 3 3 3 2 2 2 2 2 2 2 2 1 1 1 0 0 1 1 1 1 1 1 1 1 2 3 3 3 3 3 4 4 4 5 5
3 4 4 4 4 4 4 4 4 3 3 3 3 2 2 1 1 1 2 1 1 1 1 1 1 1 1 1 1 1 1 1 2 4 5 4 3 3 4 4 4 5 5
4 4 4 4 4 5 5 4 3 4 3 3 3 3 2 2 1 1 2 2 1 1 1 2 1 1 1 1 2 2 1 2 2 4 5 5 4 4 4 5 5 5 5
3 5 5 4 4 5 5 5 3 4 4 3 3 4 3 2 2 1 1 2 3 2 3 2 1 2 1 1 2 2 2 3 4 4 4 4 4 4 4 5 5 6 6
4 5 5 5 4 4 4 4 4 4 4 3 3 3 3 2 2 2 2 2 2 3 2 2 2 2 2 2 3 2 2 4 5 5 5 5 5 5 5 5 6 6 6
5 5 5 5 5 5 5 5 4 5 5 4 3 4 4 3 3 2 2 2 2 2 2 2 1 1 2 2 2 2 2 2 3 6 6 6 6 7 6 6 7 7 7
4 4 4 5 4 5 5 5 5 5 5 5 5 4 4 4 4 3 3 3 3 2 2 2 1 1 2 3 2 2 2 2 3 6 7 8 8 7 7 7 7 7 7
4 4 4 5 5 5 5 5 5 5 5 5 5 5 5 5 5 3 3 3 3 2 2 2 2 1 1 2 1 2 3 2 3 4 6 7 7 7 7 8 8 7 7
4 4 4 5 5 5 5 5 5 5 4 4 5 5 5 5 6 5 4 4 3 3 2 2 2 1 1 2 1 2 2 2 3 2 4 5 6 8 8 9 8 7 8
4 4 4 4 4 4 4 5 5 5 5 4 4 5 5 6 7 6 4 4 4 3 3 3 2 2 2 2 3 2 3 2 3 2 2 3 3 3 4 7 7 8 8
4 4 4 4 4 4 5 7 6 5 5 5 5 4 4 5 6 7 7 7 7 6 5 4 3 4 5 4 3 2 2 2 3 2 2 3 2 3 3 3 7 9 9
3 3 4 4 5 5 6 7 7 4 4 4 5 4 3 4 5 4 5 5 6 7 7 6 5 6 5 5 4 4 4 3 4 2 1 4 2 4 3 4 8 9 10
3 3 4 4 4 4 6 6 6 4 4 4 4 5 4 4 5 5 4 4 4 4 5 5 5 5 5 4 5 5 5 3 2 2 2 3 3 3 4 3 8 10 10
2 2 3 4 4 4 5 5 6 4 3 4 4 4 4 5 6 6 5 4 4 4 4 4 4 4 4 5 4 2 2 2 3 3 2 2 2 3 3 4 5 8 9
2 2 2 3 3 3 5 5 5 3 3 3 3 4 5 6 6 7 5 5 5 4 3 2 3 3 3 3 4 4 4 3 2 3 2 2 2 1 3 3 3 3 4
Wind_Direction
125 122 127 127 123 116 122 131 128 129 125 120 118 113 108 89 84 93 102 98 95 101 109 110 109 112 115 111 104 104 103 98 95 95 90 84 80 75 71 71 70 66 60
121 128 123 123 118 109 119 126 126 123 116 106 96 86 85 86 90 97 105 101 95 93 100 107 105 104 113 116 113 107 104 100 98 98 94 87 83 79 71 67 67 65 59
123 124 123 123 119 115 111 109 111 104 103 96 88 80 74 65 70 86 97 104 104 91 87 102 103 96 104 116 117 112 107 99 96 96 91 90 84 78 71 66 58 57 56
119 117 121 130 123 113 110 110 108 100 98 92 85 85 82 71 69 81 82 89 100 101 92 89 86 88 100 105 109 110 108 104 96 92 90 88 87 81 72 65 59 55 51
130 119 118 119 118 115 112 121 109 113 111 100 86 72 68 73 66 73 77 78 81 92 103 98 87 80 90 102 108 112 114 112 106 99 90 86 86 79 71 64 54 49 44
135 125 123 121 119 118 113 116 114 108 114 112 92 68 53 66 67 70 73 72 69 72 83 94 98 83 84 94 102 114 119 121 121 109 99 89 77 76 72 67 59 49 42
142 135 132 134 128 129 133 132 122 116 114 112 93 67 29 46 65 65 72 79 70 65 68 76 85 91 96 92 95 105 123 136 136 124 118 105 86 63 60 67 58 45 34
152 148 143 146 143 139 136 136 129 127 140 128 126 125 99 4 4 3 75 91 81 68 65 64 76 78 83 95 81 86 106 147 162 156 146 146 134 83 7 4 344 358 10
155 146 149 149 155 153 154 155 154 147 155 148 123 138 146 181 162 334 34 90 95 85 75 67 68 74 86 76 71 56 66 130 208 211 211 224 239 244 281 300 330 329 320
157 155 156 154 159 158 160 169 162 154 154 166 174 103 141 143 144 141 330 14 86 102 104 68 62 74 96 101 91 78 84 29 238 245 243 245 250 256 262 276 295 303 316
165 163 162 161 166 165 168 170 164 165 165 170 167 159 102 76 127 144 188 235 321 295 141 135 140 126 119 121 129 89 73 254 254 266 272 268 264 262 264 271 282 298 303
170 171 168 167 169 168 169 170 168 173 177 174 163 151 150 155 184 159 167 192 215 252 248 178 191 190 187 153 130 72 79 278 271 274 272 276 284 288 286 284 290 300 306
171 179 172 170 168 168 169 165 166 177 181 176 172 171 166 170 168 162 146 172 191 240 223 245 224 199 200 158 172 208 207 274 282 279 274 274 286 295 296 297 301 302 307
176 173 172 175 174 173 173 171 169 178 180 182 186 174 169 179 162 163 165 155 173 250 225 238 242 213 205 185 204 212 216 248 265 277 278 280 289 297 299 296 296 298 303
170 171 174 178 180 177 172 167 174 181 180 186 189 183 181 184 174 170 161 160 166 205 236 227 224 228 214 190 207 205 209 238 247 264 273 275 276 285 291 292 291 292 295
167 173 178 180 179 176 173 170 174 177 177 189 188 188 187 182 175 172 181 193 184 183 223 219 221 225 224 235 219 208 216 231 239 249 258 262 266 271 273 277 281 284 287
169 176 180 181 180 180 178 175 183 180 183 191 192 192 194 186 182 190 187 193 201 179 217 253 241 226 207 221 230 224 221 223 235 245 252 254 255 260 265 267 272 277 282
172 175 176 180 184 184 180 181 189 187 188 194 199 197 200 193 190 194 190 198 202 200 195 239 257 238 228 218 220 232 242 237 233 246 252 257 255 258 262 265 266 269 275
174 175 174 181 186 186 186 189 189 191 195 197 199 202 203 195 200 199 197 203 204 207 189 202 235 238 246 231 231 250 247 245 250 247 254 258 257 261 264 266 267 268 272
177 181 186 190 189 188 190 191 188 191 196 199 198 202 204 203 207 202 205 204 198 196 190 192 214 226 237 235 214 239 260 249 251 259 261 260 261 263 263 263 264 268 270
183 185 186 189 189 192 195 191 189 193 196 198 200 204 206 207 209 210 213 203 193 196 195 205 218 225 229 218 226 225 247 264 262 250 256 258 255 251 252 258 261 261 264
180 181 188 190 195 206 204 199 195 195 198 199 204 209 209 209 210 214 222 216 204 200 201 206 223 222 228 226 222 227 227 241 265 246 223 262 242 248 247 239 255 262 264
180 187 196 194 202 209 205 202 202 199 200 203 204 207 217 219 210 208 217 220 222 221 217 213 219 225 222 217 211 226 226 230 245 237 225 267 251 253 256 258 258 260 264
190 199 200 200 202 213 211 211 207 198 196 205 209 208 209 209 210 205 203 212 222 228 227 226 223 230 231 218 211 218 223 241 268 253 201 254 261 257 268 263 260 262 265
195 202 200 199 203 211 209 214 209 197 199 208 215 214 212 210 216 214 209 212 227 241 245 238 241 247 242 236 221 198 200 221 263 259 220 229 263 278 274 265 264 263 265
202 202 207 204 205 208 210 211 209 200 206 212 217 218 219 222 219 215 212 210 224 234 225 236 246 263 254 240 232 213 203 217 244 255 221 213 263 291 288 271 256 264 268